CZ-11 DEB, 41846

Orbit data source: Space-Track

CZ-11 DEB, 41846 is space debris in SSO originally from a launch on Wed, 09 Nov 2016 UTC launched from the Jiuquan Satellite Launch Center, China (JSC). Debris objects in space refer to the collection of defunct objects orbiting the Earth. Examples of debris include non-operational satellites, rocket bodies, and fragments generated from explosions, collisions, or faulty payload assembly.

Loading next visibility...
Identifier
41846, 2016-066F
Orbit
SSO
Last TLE update
14 hours ago
Origin
Manufacturer
CALT
Mission
Spacecraft
Bus & Motor
Unknown
Mass
Unknown
Launch date (UTC)
2016-11-09 (8 years ago)
Launch vehicle
Unknown
Launch site
Jiuquan Satellite Launch Center, China (JSC)
Object type
Payload
Rocket body
Debris
Shape & HBR
Unknown
Radar Cross Section
0.050 m², Small (<0.1 m²)

Expand to show TLE details & history

TLE from 14 hours ago
0 CZ-11 DEB
1 41846U 16066F   25128.67412432  .00002882  00000-0  38420-3 0  9999
2 41846  98.4433 210.8284 0317645 265.1049  91.3816 14.51158752446308
Epoch: 2025-05-08T16:10Z
Definitive object data (Epoch: 2025-05-08T16:10:44.341Z)
Latitude
-0.00003°
Longitude
101.40242°
Altitude
737.421 km
Speed
7.48 km/s
True Right ascension
14h 03m 18s
True Declination
0° 00' 00"
Sunlit
Object was in full shadow at TLE epoch
Visualization TLE readout
Latitude
-78.73314°
Longitude
-125.80708°
Altitude
524.209 km
Speed
7.72 km/s
Apparent Right ascension
02h 00m 57s
Apparent Declination
-62° 06' 01"
Sunlit
Object is in daylight
Visualization observer readout
Local Sidereal Time
14:47:16
Azimuth
166.247° S
Elevation
-66.733°
Doppler factor
1
Orbital elements
Apogee altitude
944.402 km
Perigee altitude
493.53 km
Semi-major axis
7,097.103 km
Eccentricity
0.0317645
Inclination
98.4433°
RAAN
210.8284°
Arg. of periapsis
265.1049°
True anomaly
95.01457°
Mean anomaly
91.3816°
Eccentric anomaly
93.19874°
Mean motion
3.63012 °/min
BSTAR
0.0003842
Orbital period
99.17 mins
Loading maneuver chart data...
Loading SW <> Apogee altitude chart data...
Loading historical data...
Loading historical data...
Loading historical data...
Loading historical data...
Loading historical data...
Loading historical data...
Loading historical data...

CZ-11 DEB Visibility forecast

Observer location: undefined°, undefined°

Span
Click to sort rows by Start time (UTC) header in descending order
Start Az.
Max El. time (UTC)
Max El. Az.
Max El.
End time (UTC)
End Az.
9 mins2025-05-09 17:36:24.334Z34.245° NE2025-05-09 17:40:24.334Z86.696° E29.835°2025-05-09 17:45:24.334Z160.929° S
7 mins2025-05-09 19:15:24.334Z343.103° N2025-05-09 19:18:24.334Z300.077° NW27.084°2025-05-09 19:22:24.334Z239.763° WSW
9 mins2025-05-10 04:43:24.334Z129.701° SE2025-05-10 04:47:24.334Z65.058° ENE33.064°2025-05-10 04:52:24.334Z2.424° NNE
8 mins2025-05-10 06:22:24.334Z220.695° SW2025-05-10 06:25:24.334Z266.39° W25.901°2025-05-10 06:30:24.334Z324.927° NNW
|